User: anonymous   Login
Location: Unspecified
(0.0000°N, 0.0000°E)
Time: 01:49:11
(UTC+00:00)
Language:

Cosmos 1666 - Orbit

View from above orbital plane
View from above orbital plane
View from above satellite
View from above satellite

Ground track
Ground track

The orbit data is extracted from the following two-line orbital elements,

1 15889U 85058A   18115.91787331  .00001733  00000-0  83093-4 0  9993
2 15889  82.4889  45.1793 0019288  56.3650 303.9686 15.18072175789606
Epoch (UTC): 25 April 2018 22:01:44
Eccentricity: 0.0019288
inclination: 82.4889°
perigee height: 498 km
apogee height: 525 km
right ascension of ascending node: 45.1793°
argument of perigee: 56.3650°
revolutions per day: 15.18072175
mean anomaly at epoch: 303.9686°
orbit number at epoch: 78960

The dashed part of the orbit path shows where the satellite is in the earth's shadow,  

DLR